Tiempo cada hora Leganés

Hoy, 15 Mayo, Sábado

Tiempo Temperatura Precipitaciones Viento Presión Humedad
00:00 +15°C° 0 mm 2 mps 705 mmHg 47%
01:00 +15°C° 0 mm 2 mps 705 mmHg 49%
02:00 +14°C° 0 mm 2 mps 705 mmHg 52%
03:00 +14°C° 0 mm 1 mps 704 mmHg 55%
04:00 +14°C° 0 mm 1 mps 704 mmHg 55%
05:00 +14°C° 0 mm 1 mps 705 mmHg 56%
06:00 +14°C° 0 mm 1 mps 705 mmHg 57%
07:00 +16°C° 0 mm 2 mps 705 mmHg 52%
08:00 +18°C° 0 mm 3 mps 705 mmHg 47%
09:00 +19°C° 0 mm 3 mps 705 mmHg 41%
10:00 +21°C° 0 mm 4 mps 705 mmHg 38%
11:00 +23°C° 0 mm 4 mps 705 mmHg 36%
12:00 +25°C° 0 mm 5 mps 705 mmHg 33%
13:00 +26°C° 0 mm 5 mps 705 mmHg 32%
14:00 +27°C° 0 mm 5 mps 705 mmHg 32%
15:00 +27°C° 0 mm 6 mps 705 mmHg 31%
16:00 +27°C° 0 mm 6 mps 705 mmHg 35%
17:00 +26°C° 0 mm 6 mps 704 mmHg 39%
18:00 +24°C° 0 mm 6 mps 704 mmHg 42%
19:00 +23°C° 0 mm 5 mps 704 mmHg 48%
20:00 +21°C° 0 mm 4 mps 705 mmHg 54%
21:00 +19°C° 0 mm 3 mps 705 mmHg 61%
22:00 +19°C° 0 mm 3 mps 705 mmHg 63%
23:00 +18°C° 0 mm 2 mps 704 mmHg 66%

Mañana, 16 Mayo, Domingo

Tiempo Temperatura Precipitaciones Viento Presión Humedad
00:00 +17°C° 0 mm 2 mps 704 mmHg 69%
01:00 +17°C° 0 mm 2 mps 704 mmHg 72%
02:00 +16°C° 0 mm 2 mps 704 mmHg 74%
03:00 +15°C° 0 mm 2 mps 703 mmHg 76%
04:00 +15°C° 0 mm 2 mps 704 mmHg 76%
05:00 +15°C° 0 mm 2 mps 704 mmHg 76%
06:00 +16°C° 0 mm 2 mps 704 mmHg 75%
07:00 +18°C° 0 mm 2 mps 704 mmHg 66%
08:00 +20°C° 0 mm 3 mps 705 mmHg 58%
09:00 +22°C° 0 mm 3 mps 705 mmHg 49%
10:00 +23°C° 0 mm 4 mps 705 mmHg 45%
11:00 +25°C° 0 mm 4 mps 705 mmHg 41%
12:00 +27°C° 0 mm 4 mps 705 mmHg 38%
13:00 +27°C° 0 mm 4 mps 704 mmHg 37%
14:00 +28°C° 0 mm 5 mps 704 mmHg 36%
15:00 +28°C° 0 mm 5 mps 704 mmHg 36%
16:00 +27°C° 0 mm 5 mps 704 mmHg 38%
17:00 +27°C° 0 mm 5 mps 704 mmHg 40%
18:00 +26°C° 0 mm 5 mps 703 mmHg 43%
19:00 +25°C° 0 mm 4 mps 704 mmHg 47%
20:00 +22°C° 0 mm 3 mps 704 mmHg 52%
21:00 +21°C° 0 mm 3 mps 704 mmHg 56%
22:00 +20°C° 0 mm 2 mps 704 mmHg 59%
23:00 +19°C° 0 mm 2 mps 704 mmHg 61%

Pasado mañana, 17 Mayo, Lunes

Tiempo Temperatura Precipitaciones Viento Presión Humedad
00:00 +18°C° 0 mm 2 mps 704 mmHg 63%
01:00 +18°C° 0 mm 2 mps 704 mmHg 66%
02:00 +17°C° 0 mm 2 mps 704 mmHg 68%
03:00 +16°C° 0 mm 2 mps 703 mmHg 71%
04:00 +16°C° 0 mm 2 mps 704 mmHg 71%
05:00 +16°C° 0 mm 2 mps 704 mmHg 71%
06:00 +16°C° 0 mm 2 mps 705 mmHg 71%
07:00 +18°C° 0 mm 2 mps 705 mmHg 64%
08:00 +19°C° 0 mm 2 mps 705 mmHg 58%
09:00 +21°C° 0 mm 2 mps 706 mmHg 52%
10:00 +23°C° 0 mm 2 mps 706 mmHg 48%
11:00 +24°C° 0 mm 3 mps 706 mmHg 44%
12:00 +26°C° 0 mm 4 mps 706 mmHg 39%
13:00 +26°C° 0 mm 4 mps 706 mmHg 37%
14:00 +27°C° 0 mm 4 mps 706 mmHg 34%
15:00 +27°C° 0 mm 4 mps 705 mmHg 32%
16:00 +27°C° 0 mm 5 mps 705 mmHg 31%
17:00 +26°C° 0 mm 5 mps 705 mmHg 31%
18:00 +25°C° 0 mm 5 mps 705 mmHg 30%
19:00 +23°C° 0 mm 5 mps 706 mmHg 31%
20:00 +21°C° 0 mm 4 mps 706 mmHg 32%
21:00 +20°C° 0 mm 3 mps 707 mmHg 34%
22:00 +19°C° 0 mm 3 mps 707 mmHg 36%
23:00 +18°C° 0 mm 3 mps 707 mmHg 38%

18 Mayo, Martes

Tiempo Temperatura Precipitaciones Viento Presión Humedad
00:00 +17°C° 0 mm 3 mps 706 mmHg 40%
01:00 +16°C° 0 mm 3 mps 707 mmHg 42%
02:00 +14°C° 0 mm 3 mps 707 mmHg 43%
03:00 +14°C° 0 mm 3 mps 707 mmHg 44%
04:00 +13°C° 0 mm 3 mps 707 mmHg 46%
05:00 +13°C° 0 mm 3 mps 708 mmHg 49%
06:00 +13°C° 0 mm 3 mps 708 mmHg 51%
07:00 +16°C° 0 mm 3 mps 709 mmHg 46%
08:00 +17°C° 0 mm 3 mps 709 mmHg 41%
09:00 +19°C° 0 mm 3 mps 710 mmHg 36%
10:00 +20°C° 0 mm 2 mps 710 mmHg 32%
11:00 +23°C° 0 mm 2 mps 710 mmHg 28%
12:00 +24°C° 0 mm 1 mps 710 mmHg 24%
13:00 +25°C° 0 mm 2 mps 709 mmHg 23%
14:00 +25°C° 0 mm 2 mps 709 mmHg 22%
15:00 +26°C° 0 mm 2 mps 709 mmHg 21%
16:00 +25°C° 0 mm 2 mps 709 mmHg 22%
17:00 +25°C° 0 mm 3 mps 709 mmHg 24%
18:00 +25°C° 0 mm 3 mps 709 mmHg 26%
19:00 +22°C° 0 mm 3 mps 709 mmHg 28%
20:00 +21°C° 0 mm 3 mps 709 mmHg 31%
21:00 +19°C° 0 mm 3 mps 709 mmHg 34%
22:00 +18°C° 0 mm 3 mps 710 mmHg 36%
23:00 +17°C° 0 mm 3 mps 710 mmHg 39%

19 Mayo, Miércoles

Tiempo Temperatura Precipitaciones Viento Presión Humedad
00:00 +15°C° 0 mm 4 mps 710 mmHg 41%
01:00 +14°C° 0 mm 4 mps 710 mmHg 43%
02:00 +14°C° 0 mm 4 mps 709 mmHg 45%
03:00 +13°C° 0 mm 4 mps 709 mmHg 46%
04:00 +13°C° 0 mm 3 mps 710 mmHg 48%
05:00 +13°C° 0 mm 3 mps 710 mmHg 49%
06:00 +13°C° 0 mm 3 mps 710 mmHg 51%
07:00 +16°C° 0 mm 3 mps 710 mmHg 50%
08:00 +18°C° 0 mm 2 mps 710 mmHg 49%
09:00 +20°C° 0 mm 2 mps 711 mmHg 48%
10:00 +21°C° 0 mm 2 mps 710 mmHg 44%
11:00 +24°C° 0 mm 1 mps 710 mmHg 39%
12:00 +26°C° 0 mm 1 mps 710 mmHg 35%
13:00 +27°C° 0 mm 1 mps 710 mmHg 32%
14:00 +27°C° 0 mm 1 mps 710 mmHg 29%
15:00 +28°C° 0 mm 1 mps 709 mmHg 26%
16:00 +28°C° 0 mm 1 mps 709 mmHg 27%
17:00 +28°C° 0 mm 1 mps 709 mmHg 27%
18:00 +28°C° 0 mm 1 mps 709 mmHg 28%
19:00 +26°C° 0 mm 1 mps 709 mmHg 31%
20:00 +24°C° 0 mm 1 mps 709 mmHg 34%
21:00 +23°C° 0 mm 2 mps 709 mmHg 37%
22:00 +21°C° 0 mm 2 mps 709 mmHg 38%
23:00 +20°C° 0 mm 2 mps 709 mmHg 39%

20 Mayo, Jueves

Tiempo Temperatura Precipitaciones Viento Presión Humedad
00:00 +19°C° 0 mm 2 mps 709 mmHg 40%
01:00 +19°C° 0 mm 2 mps 709 mmHg 44%
02:00 +18°C° 0 mm 2 mps 708 mmHg 47%
03:00 +17°C° 0 mm 2 mps 708 mmHg 50%
04:00 +17°C° 0 mm 2 mps 708 mmHg 53%
05:00 +17°C° 0 mm 2 mps 709 mmHg 55%
06:00 +17°C° 0 mm 2 mps 709 mmHg 57%
07:00 +19°C° 0 mm 2 mps 709 mmHg 54%
08:00 +20°C° 0 mm 2 mps 709 mmHg 50%
09:00 +23°C° 0 mm 2 mps 709 mmHg 46%
10:00 +25°C° 0 mm 1 mps 709 mmHg 42%
11:00 +26°C° 0 mm 1 mps 709 mmHg 37%
12:00 +27°C° 0 mm 1 mps 709 mmHg 33%
13:00 +28°C° 0 mm 1 mps 709 mmHg 31%
14:00 +29°C° 0 mm 1 mps 709 mmHg 28%
15:00 +29°C° 0 mm 1 mps 708 mmHg 26%
16:00 +29°C° 0 mm 1 mps 708 mmHg 27%
17:00 +29°C° 0 mm 1 mps 708 mmHg 28%
18:00 +29°C° 0 mm 2 mps 707 mmHg 29%
19:00 +27°C° 0 mm 2 mps 707 mmHg 31%
20:00 +25°C° 0 mm 2 mps 707 mmHg 33%
21:00 +24°C° 0 mm 2 mps 707 mmHg 36%
22:00 +23°C° 0 mm 2 mps 707 mmHg 37%
23:00 +21°C° 0 mm 2 mps 707 mmHg 38%
Mostrar más

Necesitamos Su Consentimiento

Meteoprog y nuestros Proveedores de Servicios pueden almacenar y acceder a sus datos personales como cookies, identificadores de dispositivo u otras tecnologías similares de su dispositivo y procesar dichos datos para personalizar contenido y anuncios, además de ofrecer funciones de redes sociales y analizar el tráfico.

  • Almacenar y/o acceder a información en su dispositivo

    Se puede almacenar o acceder a cookies, identificadores de dispositivo u otra información de su dispositivo para los fines anteriormente indicados.

  • Anuncios y contenido personalizados, medición de anuncios y contenido, percepciones del público, y desarrollo de productos

    Los anuncios y el contenido pueden personalizarse en base a su perfil. Se pueden añadir más datos para personalizar mejor los anuncios y contenidos. Se puede medir el rendimiento de los anuncios y contenidos. Se puede obtener la percepción sobre el público que ha visto los anuncios y contenidos. Dichos datos pueden usarse para desarrollar o mejorar la experiencia del usuario, sistemas y software.

Al hacer clic en ‘Estoy De Acuerdo’ usted permitirá el uso de las cookies, identificadores de dispositivo, balizas web u otras tecnologías similares indicadas. Su configuración puede cambiarse desde el navegador de su dispositivo.

Para ciertos fines, los intereses legítimos pueden ser considerados por encima del consentimiento. Puede leer más sobre ello en nuestra Política de Privacidad y Cookies.